AA4OM-2 Weather Reports


time (UTC)temp
C
wind
direction
speed
KPH
gust
KPH
rain 1hr
cm
rain 24hr
cm
rain mn
cm
humidity
%
barometer
mb
20260504150843 21 250 11.3 17.7 0.00 0.00 0.00 53 1013.6
20260504150339 21 231 6.4 14.5 0.00 0.00 0.00 54 1013.7
20260504141310 19 215 6.4 8.0 0.00 0.00 0.00 61 1013.9
20260504140806 19 212 3.2 8.0 0.00 0.00 0.00 61 1013.9
20260504140302 18 216 3.2 8.0 0.00 0.00 0.00 63 1013.8
20260504130731 17 250 3.2 9.7 0.00 0.00 0.00 67 1013.6
20260504130226 17 221 4.8 8.0 0.00 0.00 0.00 70 1013.8
20260504120150 13 232 0.0 0.0 0.00 0.00 0.00 80 1013.6
20260504110618 15 239 1.6 3.2 0.00 0.00 0.00 67 1013.1
20260504110114 15 221 3.2 4.8 0.00 0.00 0.00 66 1013.1
20260504100539 15 219 1.6 8.0 0.00 0.00 0.00 62 1013.0
20260504081933 15 222 0.0 4.8 0.00 0.00 0.00 58 1013.6
20260504081430 15 215 0.0 3.2 0.00 0.00 0.00 57 1013.1
20260504080926 15 190 4.8 4.8 0.00 0.00 0.00 56 1013.6
20260504080423 15 218 1.6 4.8 0.00 0.00 0.00 56 1013.2
20260504070350 16 223 4.8 4.8 0.00 0.00 0.00 54 1014.0
20260504050738 12 216 1.6 3.2 0.00 0.00 0.00 66 1014.8
20260504050235 12 217 1.6 3.2 0.00 0.00 0.00 67 1014.9
20260504045732 12 216 0.0 1.6 0.00 0.00 0.00 67 1015.1
20260504045227 11 218 3.2 3.2 0.00 0.00 0.00 69 1015.0
20260504044725 11 212 1.6 1.6 0.00 0.00 0.00 73 1015.0
20260504044222 11 214 1.6 3.2 0.00 0.00 0.00 76 1014.8
20260504043720 11 214 1.6 1.6 0.00 0.00 0.00 75 1015.1
20260504043216 11 212 1.6 3.2 0.00 0.00 0.00 73 1015.2
20260504042714 10 219 1.6 1.6 0.00 0.00 0.00 76 1015.3
20260504042210 10 220 1.6 3.2 0.00 0.00 0.00 76 1015.2
20260504041706 10 217 1.6 3.2 0.00 0.00 0.00 78 1015.2
20260504041202 10 217 1.6 3.2 0.00 0.00 0.00 79 1015.3
20260504040659 10 217 1.6 3.2 0.00 0.00 0.00 78 1015.1
20260504040156 10 217 1.6 1.6 0.00 0.00 0.00 79 1015.2
20260504035652 10 217 1.6 1.6 0.00 0.00 0.00 80 1015.1
20260504035150 10 217 0.0 1.6 0.00 0.00 0.00 80 1015.3
20260504034647 10 217 1.6 3.2 0.00 0.00 0.00 79 1015.1
20260504034144 10 217 0.0 3.2 0.00 0.00 0.00 79 1015.1
20260504033642 10 216 0.0 3.2 0.00 0.00 0.00 80 1015.6
20260504033139 10 211 0.0 1.6 0.00 0.00 0.00 83 1015.3
20260504032635 10 210 1.6 1.6 0.00 0.00 0.00 82 1015.4
20260504032132 10 217 0.0 1.6 0.00 0.00 0.00 81 1015.8
20260504031630 10 217 0.0 0.0 0.00 0.00 0.00 80 1015.5
20260504031126 10 217 0.0 1.6 0.00 0.00 0.00 80 1015.8
20260504030623 10 217 0.0 1.6 0.00 0.00 0.00 80 1015.7
20260504030120 10 217 0.0 1.6 0.00 0.00 0.00 79 1015.7
20260504025616 10 217 0.0 1.6 0.00 0.00 0.00 79 1015.5
20260504025113 10 217 0.0 0.0 0.00 0.00 0.00 79 1015.4
20260504024611 10 217 0.0 0.0 0.00 0.00 0.00 78 1015.7
20260504024107 10 217 0.0 0.0 0.00 0.00 0.00 77 1015.8
20260504023604 10 217 0.0 0.0 0.00 0.00 0.00 77 1015.6
20260504023059 10 217 0.0 0.0 0.00 0.00 0.00 76 1015.6
20260504022556 11 217 0.0 0.0 0.00 0.00 0.00 74 1015.6
20260504022052 11 217 0.0 0.0 0.00 0.00 0.00 73 1015.6
20260504021550 11 217 0.0 0.0 0.00 0.00 0.00 72 1015.6
20260504021046 11 217 0.0 0.0 0.00 0.00 0.00 72 1015.6
20260504020543 11 217 0.0 0.0 0.00 0.00 0.00 70 1015.6
20260504020040 11 217 0.0 0.0 0.00 0.00 0.00 69 1015.5
20260504015537 11 217 0.0 0.0 0.00 0.00 0.00 69 1015.5
20260504015032 12 217 0.0 0.0 0.00 0.00 0.00 67 1015.5
20260504014529 12 218 0.0 0.0 0.00 0.00 0.00 66 1015.4
20260504014026 12 217 0.0 0.0 0.00 0.00 0.00 65 1015.5
20260504013524 13 217 0.0 0.0 0.00 0.00 0.00 63 1015.3
20260504013020 13 217 0.0 0.0 0.00 0.00 0.00 62 1015.2
20260504012518 14 217 0.0 0.0 0.00 0.00 0.00 60 1015.2
20260504012016 14 217 0.0 1.6 0.00 0.00 0.00 59 1015.3
20260504011512 15 217 0.0 1.6 0.00 0.00 0.00 58 1015.2
20260504011008 15 217 1.6 1.6 0.00 0.00 0.00 57 1015.3
20260504010504 15 217 0.0 1.6 0.00 0.00 0.00 53 1015.2
20260504010000 16 216 0.0 3.2 0.00 0.00 0.00 52 1015.2
20260504005457 16 216 1.6 1.6 0.00 0.00 0.00 51 1015.2
20260504004954 16 217 0.0 3.2 0.00 0.00 0.00 50 1015.0
20260504004452 17 218 0.0 1.6 0.00 0.00 0.00 50 1015.2
20260504003949 17 213 0.0 1.6 0.00 0.00 0.00 45 1015.2
20260504003445 17 212 1.6 1.6 0.00 0.00 0.00 43 1015.3
20260504002942 18 209 1.6 1.6 0.00 0.00 0.00 43 1015.2
20260504002439 18 221 0.0 1.6 0.00 0.00 0.00 42 1015.2
20260504001936 18 237 4.8 9.7 0.00 0.00 0.00 41 1015.4
20260504001433 18 226 4.8 4.8 0.00 0.00 0.00 43 1015.4
20260504000930 19 210 3.2 3.2 0.00 0.00 0.00 43 1015.4
20260504000427 19 209 1.6 3.2 0.00 0.00 0.00 40 1015.7
20260503235924 19 225 4.8 8.0 0.00 0.00 0.00 39 1015.4
20260503235422 20 214 3.2 11.3 0.00 0.00 0.00 39 1015.7
20260503234919 20 215 3.2 11.3 0.00 0.00 0.00 38 1015.7
20260503234417 20 229 1.6 9.7 0.00 0.00 0.00 38 1015.5
20260503233915 20 213 1.6 9.7 0.00 0.00 0.00 36 1015.8
20260503233411 20 209 6.4 9.7 0.00 0.00 0.00 37 1015.9
20260503232907 21 215 4.8 9.7 0.00 0.00 0.00 35 1015.9
20260503232405 21 237 1.6 8.0 0.00 0.00 0.00 36 1015.9
20260503231902 21 214 4.8 8.0 0.00 0.00 0.00 36 1016.0
20260503231359 21 200 8.0 9.7 0.00 0.00 0.00 37 1016.1
20260503230855 21 209 8.0 16.1 0.00 0.00 0.00 35 1016.1
20260503230352 21 222 1.6 9.7 0.00 0.00 0.00 36 1016.1
20260503225850 21 197 3.2 4.8 0.00 0.00 0.00 37 1016.2
20260503225346 21 207 1.6 14.5 0.00 0.00 0.00 34 1016.2
20260503224842 21 207 9.7 12.9 0.00 0.00 0.00 34 1016.1
20260503224339 21 220 3.2 8.0 0.00 0.00 0.00 35 1016.2
20260503223837 21 232 6.4 11.3 0.00 0.00 0.00 34 1016.3
20260503223335 21 253 4.8 12.9 0.00 0.00 0.00 34 1016.2
20260503222830 21 281 4.8 17.7 0.00 0.00 0.00 33 1016.3
20260503222329 21 220 4.8 8.0 0.00 0.00 0.00 34 1016.2
20260503221826 21 247 4.8 4.8 0.00 0.00 0.00 34 1016.5
20260503221325 21 213 4.8 9.7 0.00 0.00 0.00 36 1016.5
20260503220821 21 228 4.8 9.7 0.00 0.00 0.00 35 1016.6
20260503220318 21 232 8.0 14.5 0.00 0.00 0.00 35 1016.8
20260503215814 21 180 8.0 12.9 0.00 0.00 0.00 31 1016.9
20260503215312 21 191 4.8 12.9 0.00 0.00 0.00 36 1016.8
20260503214810 21 195 6.4 12.9 0.00 0.00 0.00 34 1016.9
20260503214306 21 261 6.4 9.7 0.00 0.00 0.00 36 1017.2
20260503213804 21 254 4.8 9.7 0.00 0.00 0.00 34 1017.1
20260503213301 21 221 16.1 20.9 0.00 0.00 0.00 34 1017.1
20260503212758 21 198 11.3 14.5 0.00 0.00 0.00 36 1017.4
20260503212256 20 228 9.7 14.5 0.00 0.00 0.00 34 1017.5
20260503211753 21 235 16.1 17.7 0.00 0.00 0.00 34 1017.6
20260503211249 21 190 9.7 12.9 0.00 0.00 0.00 34 1017.4
20260503210744 20 229 8.0 11.3 0.00 0.00 0.00 35 1017.8
20260503210242 21 206 9.7 12.9 0.00 0.00 0.00 34 1017.9
20260503205743 20 227 8.0 20.9 0.00 0.00 0.00 35 1017.7
20260503205240 21 213 9.7 17.7 0.00 0.00 0.00 34 1017.7
20260503204736 20 220 6.4 14.5 0.00 0.00 0.00 38 1018.1
20260503204234 20 193 6.4 9.7 0.00 0.00 0.00 34 1018.2
20260503203731 20 221 11.3 17.7 0.00 0.00 0.00 34 1018.1
20260503203228 20 232 4.8 12.9 0.00 0.00 0.00 36 1018.4
20260503202725 20 215 1.6 9.7 0.00 0.00 0.00 35 1018.4
20260503202223 21 220 6.4 17.7 0.00 0.00 0.00 34 1018.9
20260503201721 21 233 8.0 9.7 0.00 0.00 0.00 38 1018.5
20260503201218 20 236 6.4 9.7 0.00 0.00 0.00 35 1019.0
20260503200714 20 258 9.7 17.7 0.00 0.00 0.00 35 1019.1
20260503200211 20 209 11.3 14.5 0.00 0.00 0.00 35 1019.3
20260503195707 20 186 17.7 22.5 0.00 0.00 0.00 37 1019.2
20260503195205 20 227 6.4 11.3 0.00 0.00 0.00 34 1019.3
20260503194702 20 247 3.2 9.7 0.00 0.00 0.00 38 1019.6
20260503194157 20 222 11.3 14.5 0.00 0.00 0.00 34 1019.5
20260503193654 20 254 9.7 14.5 0.00 0.00 0.00 37 1019.7
20260503193149 19 218 1.6 11.3 0.00 0.00 0.00 38 1019.7
20260503192645 20 178 8.0 12.9 0.00 0.00 0.00 35 1019.8
20260503192141 20 34 4.8 8.0 0.00 0.00 0.00 39 1019.8
20260503191638 19 225 8.0 12.9 0.00 0.00 0.00 35 1019.9
20260503191135 20 236 14.5 17.7 0.00 0.00 0.00 36 1020.0
20260503190632 20 330 4.8 16.1 0.00 0.00 0.00 37 1020.0
20260503190129 19 300 4.8 8.0 0.00 0.00 0.00 40 1020.2
20260503185626 18 194 3.2 9.7 0.00 0.00 0.00 40 1020.0
20260503185121 19 239 11.3 20.9 0.00 0.00 0.00 37 1020.3
20260503184616 19 213 4.8 9.7 0.00 0.00 0.00 37 1020.1
20260503184113 18 216 4.8 9.7 0.00 0.00 0.00 42 1020.5
20260503183609 19 230 11.3 14.5 0.00 0.00 0.00 37 1020.2
20260503183107 19 212 4.8 12.9 0.00 0.00 0.00 39 1020.1
20260503182605 19 242 1.6 16.1 0.00 0.00 0.00 38 1020.4
20260503182103 18 224 8.0 11.3 0.00 0.00 0.00 41 1020.5
20260503181559 18 236 9.7 14.5 0.00 0.00 0.00 38 1020.6
20260503181056 18 278 6.4 8.0 0.00 0.00 0.00 41 1020.5
20260503180553 18 202 6.4 9.7 0.00 0.00 0.00 37 1020.6
20260503180050 18 188 12.9 16.1 0.00 0.00 0.00 37 1020.9
20260503175547 18 210 0.0 1.6 0.00 0.00 0.00 40 1020.7
20260503175045 18 232 8.0 12.9 0.00 0.00 0.00 39 1020.9
20260503174542 18 193 8.0 11.3 0.00 0.00 0.00 40 1021.1
20260503174038 18 185 3.2 9.7 0.00 0.00 0.00 40 1021.3
20260503173533 18 231 4.8 8.0 0.00 0.00 0.00 41 1021.3
20260503173029 17 207 3.2 3.2 0.00 0.00 0.00 40 1021.3
20260503172528 17 254 3.2 14.5 0.00 0.00 0.00 41 1021.5
20260503172024 18 219 9.7 11.3 0.00 0.00 0.00 37 1021.4
20260503171521 17 65 1.6 3.2 0.00 0.00 0.00 40 1021.6
20260503171018 17 227 3.2 11.3 0.00 0.00 0.00 38 1021.8
20260503170514 18 236 8.0 11.3 0.00 0.00 0.00 40 1021.8